Regional Weather Roundup
Issued by NWS

Home | Current Version | Previous Version | Text Only | Print | Product List | Glossary Off
Versions: 1 2 3 4 5 6 7 8 9 10 11 12 13 14 15 16 17 18 19 20 21 22 23 24 25 26 27 28 29 30 31 32 33 34 35 36 37 38 39 40 41 42 43 44 45 46 47 48 49 50

115
ASUS43 KMPX 211401
RWRMN
WEATHER ROUNDUP FOR MINNESOTA
NATIONAL WEATHER SERVICE TWIN CITIES/CHANHASSEN MN
900 AM CDT FRI JUL 21 2017


NOTE: "FAIR" INDICATES FEW OR NO CLOUDS BELOW 12,000 FEET WITH NO
SIGNIFICANT WEATHER AND/OR OBSTRUCTIONS TO VISIBILITY. N/A MEANS
CURRENT SKY AND/OR WEATHER CONDITIONS ARE NOT AVAILABLE.

MNZ060>063-068>070-211500-
   Twin Cities Metro

CITY           SKY/WX    TMP DP  RH WIND       PRES   REMARKS
TWIN CITIES    CLOUDY    73  66  78 SE8       29.95R
ST PAUL        CLOUDY    72  69  90 SE8       29.95R
CRYSTAL        CLOUDY    73  65  75 SE3       29.94R
BLAINE         CLOUDY    73  72  94 CALM      29.95R
LAKEVILLE      CLOUDY    66  66 100 SE3       29.94S
EDEN PRAIRIE   CLOUDY    72  67  84 S6        29.94R
SOUTH ST PAUL  CLOUDY    72  70  92 SE6       29.95R
LAKE ELMO      FAIR      72  70  94 S3        29.97R
$$
MNZ001>005-007-008-013>017-022>024-027-028-211500-
   Northwest Minnesota

CITY           SKY/WX    TMP DP  RH WIND       PRES   REMARKS
BEMIDJI        PTSUNNY   70  64  81 E9        29.90S
HALLOCK        SUNNY     73  64  73 SE7       29.83R
ROSEAU         CLOUDY    70  61  73 E6        29.89R
WARROAD        PTSUNNY   68  61  77 NE12      29.92R
CROOKSTON      MOSUNNY   75  70  83 SE8       29.83R
FOSSTON        MOSUNNY   73  64  73 SE10      29.86S
DETROIT LAKES  CLOUDY    73  68  83 SE10      29.88S
MOORHEAD       PTSUNNY   75  70  83 SE10      29.80F
PARK RAPIDS    MOSUNNY   74  65  73 SE10      29.90R
MAHNOMEN       FAIR      74  67  78 SE9       29.86R
$$
MNZ006-009>011-018-025>026-211500-
   North Central Minnesota

CITY           SKY/WX    TMP DP  RH WIND       PRES   REMARKS
BAUDETTE       PTSUNNY   66  58  75 E10       29.90S
FLAG ISLAND    CLOUDY    66  61  82 CALM      29.91R
INTL FALLS     SUNNY     68  59  73 E6        29.94R
WASKISH        CLOUDY    66  55  68 E9        29.91R
BIG FORK       CLOUDY    66  57  72 CALM      29.94R
LONGVILLE      CLOUDY    72  66  83 CALM      29.93R
GRAND RAPIDS   PTSUNNY   68  62  81 VRB5      29.97R
CRANE LAKE     MOSUNNY   66  55  68 CALM      29.96R
ORR            CLOUDY    66  57  72 CALM      29.93R
COOK           CLOUDY    63  59  88 CALM      29.96R
WALKER         FAIR      70  66  85 E5        29.92R
$$
MNZ012-019>021-037-211500-
   Northeast Minnesota

CITY           SKY/WX    TMP DP  RH WIND       PRES   REMARKS
DULUTH         CLOUDY    68  61  78 SE5       29.99R
ELY            CLOUDY    64  55  72 CALM      29.97R
HIBBING        MOSUNNY   68  60  75 SE7       29.96R
EVELETH        CLOUDY    66  56  68 CALM      29.98R
DULUTH HARBOR  CLOUDY    66  63  88 NE7       29.98R THUNDER
TWO HARBORS    CLOUDY    72  63  73 CALM      29.96R
GRAND MARAIS     N/A     70  60  70 N3        29.94R
G MARAIS ARPRT MOSUNNY   63  52  67 CALM      29.99S
$$
MNZ029>031-032-039>041-046>048-054>057-064-211500-
   West Central Minnesota

CITY           SKY/WX    TMP DP  RH WIND       PRES   REMARKS
FERGUS FALLS   CLOUDY    75  70  83 SE14      29.83F
WHEATON        PTSUNNY   72  70  94 SE9       29.82F
MORRIS         PTSUNNY   73  70  88 SE13      29.80F
ALEXANDRIA     CLOUDY    72  68  87 SE15      29.87F
ELBOW LAKE     FAIR      73  70  91 SE13      29.85F
WADENA         CLOUDY    72  64  78 E5        29.89S
GLENWOOD       PTSUNNY   72  70  94 E8        29.89F
APPLETON       LGT RAIN  72  68  88 SE3       29.83F
BENSON         CLOUDY    73  70  88 E3        29.87F
ORTONVILLE     CLOUDY    70  68  94 SE17G23   29.79F FOG
MADISON        LGT RAIN  73  73 100 S5        29.82F
WILLMAR        FAIR      72  70  94 SE9       29.89S
$$
MNZ033>034-036-042>043-049>051-058-059-211500-
   Central Minnesota

CITY           SKY/WX    TMP DP  RH WIND       PRES   REMARKS
ST CLOUD       PTSUNNY   69  69 100 SE6       29.92F
SAUK CENTRE    FAIR      70  67  91 SE8       29.90F
PAYNESVILLE    CLOUDY    71  67  88 E7        29.90F
AITKIN         MOSUNNY   73  66  78 SE10      29.91F
PINE RIVER     CLOUDY    72  66  83 SE5       29.95R
BRAINERD       PTSUNNY   73  66  78 SE5       29.91F
STAPLES        CLOUDY    73  63  68 SE5       29.90S
LONG PRAIRIE   FAIR      70  64  83 SE13      29.89F
LITTLE FALLS   CLOUDY    72  63  73 SE12      29.89F
LITCHFIELD     PTSUNNY   72  70  94 SE8       29.91F
BUFFALO        CLOUDY    70  66  87 E5        29.94S
MAPLE LAKE     CLOUDY    71  69  93 E5        29.93F
HUTCHINSON     PTSUNNY   69  68  96 SE5       29.93F
$$
MNZ037-044-045-052-053-211500-
   East Central Minnesota

CITY           SKY/WX    TMP DP  RH WIND       PRES   REMARKS
PRINCETON      CLOUDY    72  70  94 SE5       29.93F
MORA           MOSUNNY   70  70 100 SE6       29.94F
CAMBRIDGE      CLOUDY    73  70  88 SE5       29.91F
RUSH CITY      CLOUDY    71  67  87 E3        29.93F
MOOSE LAKE     CLOUDY    70  66  88 CALM      29.93F
HINCKLEY       FAIR      70  68  94 SE3       29.94F
CLOQUET        MOSUNNY   70  63  78 E5        29.97R
MCGREGOR       CLOUDY    72  68  88 SE3       29.94F
$$
MNZ071>073-080-081-089-090-097-098-211500-
   Southwest Minnesota

CITY           SKY/WX    TMP DP  RH WIND       PRES   REMARKS
MONTEVIDEO     LGT RAIN  72  72 100 SW9       29.83F
GRANITE FALLS  RAIN      71  68  90 S9        29.86S
CANBY          RAIN      72  69  89 S14G22    29.79F
MARSHALL       RAIN      70  68  93 SE6       29.87F
REDWOOD FALLS  LGT RAIN  73  69  87 S8        29.89F FOG
OLIVIA         LGT RAIN  70  68  94 SE6       29.88F
PIPESTONE      LGT RAIN  73  70  88 SE10      29.88F
WINDOM         RAIN      73  70  88 SE5       29.94F
WORTHINGTON    LGT RAIN  71  70  96 E12       29.91F FOG
JACKSON        RAIN      72  70  94 CALM      29.97R
SLAYTON        RAIN      70  67  90 E6        29.92F
$$
MNZ065>067-074>077-082>085-091>093-211500-
   South Central Minnesota

CITY           SKY/WX    TMP DP  RH WIND       PRES   REMARKS
MANKATO        LGT RAIN  70  69  97 CALM      29.93R
NEW ULM        RAIN      70  70 100 SW3       29.92R
ST JAMES       LGT RAIN  72  70  94 CALM      29.94R
FAIRMONT       LGT RAIN  73  71  93 S8        29.96R
GLENCOE        CLOUDY    69  69  99 E6        29.91F
FARIBAULT      TSTM      70  66  88 SE8G18    29.95F
OWATONNA       TSTM      70  68  94 SE5       29.94F
WASECA         TSTM      70  68  94 CALM      29.96R VSB 1
ALBERT LEA     CLOUDY    70  70 100 CALM      29.96F
$$
MNZ078>079-086>088-094>096-211500-
   Southeast Minnesota

CITY           SKY/WX    TMP DP  RH WIND       PRES   REMARKS
ROCHESTER      LGT RAIN  68  67  96 SE6       29.99R FOG
RED WING       CLOUDY    73  68  83 CALM      29.96R
STANTON        CLOUDY    71  66  86 SE8       29.93F THUNDER
DODGE CENTER   TSTM      68  66  94 E5        29.97F
WINONA         CLOUDY    70  68  94 SE6       29.96R
AUSTIN         TSTM      70  66  88 S5        29.94F
PRESTON        CLOUDY    69  67  93 SE7       29.97S
$$
ABBREVIATIONS USED IN REMARKS
   TC - TEMPERATURES IN CELSIUS
  WCI - WIND CHILL INDEX
   HX - HEAT INDEX
  VSB - VISIBILITY
$$




USA.gov is the U.S. government's official web portal to all federal, state and local government web resources and services.